Погода в Масджид-Солеймане

Иран     31°55′29″N   49°18′36″E
темп.,
°C
ветер,
м/с
пор.,
м/с
влажн.,
%
обл.,
%
осадки,
мм/ч
давл.,
гПа
погр.,
м
11 мая, вт
вт1101:30+30юв22150 0.0 100521
04:30+28св11179 0.0 100514
07:30+30юв1116100 0.0 100831
10:30+35вюв221186 0.0 1008595
13:30+38з13988 0.0 10073819
16:30+39зсз75924 0.0 10054597
19:30+37зсз4510100 0.0 10041097
22:30+33ссв111314 0.0 100544
12 мая, ср
ср1201:30+31сз00141 0.0 100511
04:30+29всв11155 0.0 100511
07:30+31в331417 0.0 100748
10:30+36вюв12117 0.0 1007793
13:30+40зюз54856 0.0 10064953
16:30+40зюз5480 0.0 10044189
19:30+38з3490 0.0 10031208
22:30+34с241116 0.0 1004142
13 мая, чт
чт1301:30+32св22126 0.0 100315
04:30+30ююв221570 0.1 100426
07:30+30всв22166 0.0 100555
10:30+36вюв23135 0.0 1005673
13:30+40зюз65922 0.0 10045048
16:30+40з6684 0.0 10025092
19:30+37ссз451117 0.0 10021211
22:30+33всв34160 0.0 1004125
14 мая, пт
пт1401:30+31всв22190 0.0 100340
04:30+29всв22201 0.0 100330
07:30+30в32200 0.0 100468
10:30+35вюв11150 0.0 1005801
13:30+40зсз6880 0.0 10034222
16:30+41зсз10960 0.0 10004850
19:30+35ссз914121 0.0 1001606
22:30+32сз12160 0.0 100266
15 мая, сб
сб1501:30+31всв341794 0.0 1001103
04:30+28всв22230 0.0 100148
07:30+29в33240 0.0 1002105
10:30+35вюв22150 0.0 1002899
13:30+38юз53110 0.0 10012985
16:30+39юз3390 0.0 9993628
19:30+37з22101 0.0 999849
22:30+33ссв12139 0.0 100198